Location: La Comballaz
(46.3780°N, 7.0817°E)
Time: 12:34:45
(UTC+00:00)

M-CUBED/EXP-1 PRIME - Visible Passes

Search period start: 04 December 2022 00:00
Search period end: 14 December 2022 00:00
Orbit: 419 x 616 km, 101.7° (Epoch: 04 December)

Date Brightness Start Highest point End Pass type
(mag) Time Alt. Az. Time Alt. Az. Time Alt. Az.
04 Dec ? 05:23:01 10° ESE 05:26:26 26° ENE 05:29:58 10° N visible
05 Dec ? 05:09:23 10° ESE 05:12:19 19° ENE 05:15:20 10° NNE visible
06 Dec ? 04:56:01 10° E 04:58:14 14° NE 05:00:27 10° NNE visible
07 Dec ? 04:43:34 10° ENE 04:44:07 10° NE 04:44:41 10° NE visible
07 Dec ? 06:12:48 10° SSE 06:16:54 70° ENE 06:21:11 10° NNW visible
08 Dec ? 05:58:38 10° SE 06:02:37 47° ENE 06:06:45 10° N visible
09 Dec ? 05:44:36 10° SE 05:48:21 33° ENE 05:52:13 10° N visible
10 Dec ? 05:30:43 10° ESE 05:34:06 24° ENE 05:37:34 10° N visible
11 Dec ? 05:17:03 10° E 05:19:53 18° NE 05:22:44 10° NNE visible
12 Dec ? 05:03:44 10° E 05:05:39 13° NE 05:07:36 10° NNE visible
13 Dec ? 06:20:00 10° SSE 06:24:09 61° ENE 06:28:26 10° NNW visible
